Regional Weather Roundup
Issued by NWS

Home | Current Version | Previous Version | Graphics & Text | Print | Product List | Glossary On
Versions: 1 2 3 4 5 6 7 8 9 10 11 12 13 14 15 16 17 18 19 20 21 22 23 24 25 26 27 28 29 30 31 32 33 34 35 36 37 38 39 40 41 42 43 44 45 46 47 48 49 50
000
ASUS45 KSLC 221710
RWRUT

UTAH REGIONAL WEATHER ROUNDUP
NATIONAL WEATHER SERVICE SALT LAKE CITY UT
1100 AM MDT WED MAR 22 2017

UTZ001>011-023>025-221800-

NORTHERN UTAH

CITY           SKY/WX    TMP DP  RH WIND       PRES   REMARKS
BRIGHAM CITY     N/A     56  45  66 NW3       29.91S
DUGWAY         PTSUNNY   62  39  44 SW7       29.88F
HILL AFB       PTSUNNY   52  45  76 N3        29.91S
LOGAN          PTSUNNY   53  46  77 W6        29.92F
OGDEN          CLOUDY    54  45  71 N7        29.90S THUNDER
SALT LAKE CITY PTSUNNY   61  44  53 N3        29.89S
WENDOVER       SUNNY     57  37  47 CALM      29.91S
HEBER CITY     PTSUNNY   52  41  66 NW5       29.94S

$$

UTZ011>015-024>027-221800-

CENTRAL/NORTHEAST UTAH

CITY           SKY/WX    TMP DP  RH WIND       PRES   REMARKS
PROVO AIRPORT  PTSUNNY   63  37  39 SE8       29.92S
MOAB/CANYONLAN PTSUNNY   65  26  23 E8        29.95S
DELTA          PTSUNNY   61  34  36 S18G24    29.93S
PRICE          CLOUDY    57  32  38 SE7       29.98R
RICHFIELD      SUNNY     64  30  27 S18       29.95
ROOSEVELT      MOSUNNY   61  36  39 NW7       29.97F
VERNAL         MOSUNNY   61  36  39 SW9       29.96S

$$

UTZ013>016-019>022-027-221800-

SOUTHERN UTAH

CITY           SKY/WX    TMP DP  RH WIND       PRES   REMARKS
BRYCE CANYON   PTSUNNY   50  29  44 E8        30.07F
CEDAR CITY     MOSUNNY   60  31  33 S13G29    29.96S
MILFORD        PTSUNNY   62  39  42 S22       29.92F
ST GEORGE      PTSUNNY   67  38  34 CALM      29.93S
HANKSVILLE     PTSUNNY   70  27  19 SW13G23   29.96F
KANAB          MOSUNNY   63  32  31 SW13G18   30.05
BLANDING       CLOUDY    56  28  32 S7        30.14F

$$

REGIONAL REPORTS     COLORADO/ARIZONA

CITY           SKY/WX    TMP DP  RH WIND       PRES   REMARKS
CRAIG, CO      CLOUDY    64  24  21 SW16G26   30.00F
GRAND JUNCTION MOSUNNY   66  26  22 SE9       29.98S
RIFLE, CO      MOSUNNY   57  34  41 E5        30.03R
MONTROSE, CO   MOSUNNY   61  26  26 NE5       30.06R
CORTEZ, CO     CLOUDY    62  29  28 SE17      30.09F
COLORADO CITY    N/A     63  32  31 SE10      30.02F
PAGE, AZ       MOSUNNY   69  32  25 NW7       29.96F
GRAND CANYON   MOSUNNY   57  34  41 SW18      30.08F
KINGMAN, AZ    CLOUDY    63  37  38 SW15      29.99R
FLAGSTAFF, AZ  PTSUNNY   53  32  44 SW22G29   30.11F

$$

REGIONAL REPORTS    NEVADA/IDAHO/WYOMING

CITY           SKY/WX    TMP DP  RH WIND       PRES   REMARKS
LAS VEGAS, NV  PTSUNNY   66  35  31 S13G25    29.91R
ELY, NY        SUNNY     52  23  32 S18       29.94R
ELKO, NV       CLOUDY    46  39  76 NE7       29.93F
POCATELLO, ID  CLOUDY    47  44  90 SW12      29.98R
BURLEY, ID     LGT RAIN  44  38  79 S15       29.94F
FORT BRIDGER,  CLOUDY    47  38  72 S5        30.02R
EVANSTON, WY   CLOUDY    46  38  73 SW14G25   29.99S
ROCK SPRINGS,  CLOUDY    51  37  58 NE6       30.00F
KEMMERER, WY     N/A     37  36  93 W13       30.01R WCI  29

$$



USA.gov is the U.S. government's official web portal to all federal, state and local government web resources and services.